Memphis, TN

1:57 AM CDT on April 24, 2018 (GMT -0500)
Memphis International

Weather History for KMEM - February, 2012

Change the Weather History Date:

Monday, February 20, 2012

  Actual Average Record
Temperature  
Mean Temperature 45 °F 47 °F  
Max Temperature 58 °F 56 °F 80 °F (1986)
Min Temperature 31 °F 38 °F 13 °F (1958)
Degree Days  
Heating Degree Days 20 18  
Month to date heating degree days 382 412  
Since 1 July heating degree days 1910 2314  
Cooling Degree Days 0 0  
Month to date cooling degree days 0 0  
Year to date cooling degree days 0 1  
Moisture  
Dew Point 26 °F    
Average Humidity 53    
Maximum Humidity 82    
Minimum Humidity 23    
Precipitation  
Precipitation 0.00 in 0.16 in 2.48 in (1961)
Month to date precipitation 2.42 3.09  
Year to date precipitation 4.15 7.07  
Snow  
Snow 0.00 in 0.00 in 4.30 in (1936)
Month to date snowfall T 1.0  
Since 1 July snowfall 1.4 3.1  
Snow Depth 0.00 in    
Sea Level Pressure  
Sea Level Pressure 30.13 in    
Wind  
Wind Speed 8 mph (SE)    
Max Wind Speed 22 mph    
Max Gust Speed 28 mph    
Visibility 10 miles    
Events      
T = Trace of Precipitation, MM = Missing Value Source: NWS Daily Summary

Daily Weather History Graph

Daily Weather History Graph

Search for Another Location

Airport or City:

Astronomy

Feb. 20, 2012 Rise Set
Actual Time 6:40 AM CST 5:46 PM CST
Civil Twilight 6:15 AM CST 6:12 PM CST
Nautical Twilight 5:45 AM CST 6:42 PM CST
Astronomical Twilight 5:16 AM CST 7:11 PM CST
Moon 5:36 AM CST (2/20) 4:52 PM CST (2/20)
Length of Visible Light 11h 57m
Length of Day
11h 06m
Waning Crescent, 1% of the Moon is Illuminated
Feb 20
Waning Crescent
Feb 21
New
Feb 29
First Quarter
Mar 8
Full
Mar 14
Last Quarter

Hourly Weather History & Observations

Time (CST) Temp. Windchill Dew Point Humidity Pressure Visibility Wind Dir Wind Speed Gust Speed Precip Events Conditions
12:54 AM 36.0 °F - 27.0 °F 70% 30.17 in 10.0 mi Calm Calm - N/A   Clear
1:54 AM 34.0 °F - 27.0 °F 75% 30.20 in 10.0 mi Calm Calm - N/A   Clear
2:54 AM 32.0 °F - 27.0 °F 82% 30.21 in 10.0 mi Calm Calm - N/A   Clear
3:54 AM 34.0 °F - 28.0 °F 79% 30.22 in 10.0 mi Calm Calm - N/A   Clear
4:54 AM 32.0 °F 24.8 °F 26.1 °F 79% 30.19 in 10.0 mi East 8.1 mph - N/A   Clear
5:54 AM 32.0 °F 24.2 °F 26.1 °F 79% 30.17 in 10.0 mi East 9.2 mph - N/A   Partly Cloudy
6:54 AM 33.1 °F 28.7 °F 24.1 °F 70% 30.19 in 10.0 mi East 4.6 mph - N/A   Partly Cloudy
7:54 AM 37.0 °F 34.5 °F 26.1 °F 65% 30.22 in 10.0 mi East 3.5 mph - N/A   Partly Cloudy
8:54 AM 41.0 °F 36.4 °F 27.0 °F 57% 30.24 in 10.0 mi East 6.9 mph - N/A   Clear
9:54 AM 45.0 °F 42.6 °F 26.1 °F 48% 30.25 in 10.0 mi ESE 4.6 mph - N/A   Partly Cloudy
10:54 AM 48.0 °F - 26.1 °F 42% 30.25 in 10.0 mi East 5.8 mph - N/A   Partly Cloudy
11:54 AM 51.1 °F - 24.1 °F 35% 30.23 in 10.0 mi Variable 3.5 mph - N/A   Partly Cloudy
12:54 PM 53.1 °F - 21.9 °F 30% 30.18 in 10.0 mi ESE 5.8 mph - N/A   Partly Cloudy
1:54 PM 55.4 °F - 24.8 °F 31% 30.16 in 10.0 mi Variable 5.8 mph - N/A   Partly Cloudy
2:54 PM 57.0 °F - 19.9 °F 24% 30.12 in 10.0 mi SE 9.2 mph 16.1 mph N/A   Partly Cloudy
3:54 PM 57.0 °F - 24.1 °F 28% 30.08 in 10.0 mi SSE 10.4 mph - N/A   Partly Cloudy
4:54 PM 57.0 °F - 24.1 °F 28% 30.05 in 10.0 mi SSE 12.7 mph - N/A   Partly Cloudy
5:54 PM 54.0 °F - 24.1 °F 31% 30.04 in 10.0 mi SSE 9.2 mph - N/A   Partly Cloudy
6:54 PM 52.0 °F - 24.1 °F 34% 30.04 in 10.0 mi SE 6.9 mph - N/A   Partly Cloudy
7:54 PM 51.1 °F - 26.1 °F 38% 30.02 in 10.0 mi SSE 12.7 mph - N/A   Partly Cloudy
8:54 PM 51.8 °F - 26.6 °F 38% 29.99 in 10.0 mi SSE 17.3 mph 24.2 mph N/A   Mostly Cloudy
9:54 PM 51.1 °F - 28.9 °F 43% 30.01 in 10.0 mi South 16.1 mph - N/A   Mostly Cloudy
10:54 PM 53.1 °F - 30.9 °F 43% 29.99 in 10.0 mi South 16.1 mph - N/A   Mostly Cloudy
11:54 PM 52.0 °F - 33.1 °F 49% 29.96 in 10.0 mi South 18.4 mph - N/A   Scattered Clouds